Starlink 32897

operational
NORAD ID: 62967 Int'l Des: 2025-029 Owner: SPXS Country: US Constellation: starlink
LEOCIRCULAR

Starlink 32897について

説明を読み込み中...

リアルタイム位置

3D地球を読み込み中...

次回通過

高度履歴

Altitude vs Time

uPlot chart will show altitude changes over time

軌道要素

1 62967U 25029V 25352.98901461 .00013477 00000-0 46628-3 0 9994
2 62967 53.1588 247.1809 0001430 71.6072 288.5085 15.30202643 48963
Epoch: Dec 18, 2025 • Age: 16 hours

現在のステータス

高度 474.8 km
速度 7.63 km/s
衛星直下点 11.31°N, 67.87°W
打ち上げ日 Feb 11, 2025
運用期間 0.8 years
タイプ internet

技術仕様

分類 Payload
質量 730.00 kg
乾燥質量 700.00 kg
総質量 730.00 kg
長さ 0.30 m
直径 4.10 m
スパン 29.00 m
形状 Box + pan
製造者 SPXS
バスタイプ Starlink V2M
フェーズステータス In Orbit
所有者/国 SPXS/US

大規模コンステレーション

Loading constellations...